Regional Weather Roundup
Issued by NWS

Home | Current Version | Previous Version | Text Only | Print | Product List | Glossary Off
Versions: 1 2 3 4 5 6 7 8 9 10 11 12 13 14 15 16 17 18 19 20 21 22 23 24 25 26 27 28 29 30 31 32 33 34 35 36 37 38 39 40 41 42 43 44 45 46 47 48 49 50

000
ASUS43 KOAX 291510
RWRNE

WEATHER ROUNDUP FOR NEBRASKA
NATIONAL WEATHER SERVICE OMAHA NE
1000 AM CDT WED JUL 29 2015

NOTES: SATELLITE DATA IS BEING USED TO AUGMENT CLOUD COVER ABOVE
       12000 FEET.
       "FAIR" INDICATES FEW OR NO CLOUDS BELOW 12,000 FEET WITH NO
       SIGNIFICANT WEATHER AND/OR OBSTRUCTIONS TO VISIBILITY.

  * THESE STATIONS DO NOT REPORT WEATHER SUCH AS RAIN...SNOW OR FOG.

NEZ001>004-019>022-054>056-291600-
NEBRASKA PANHANDLE

CITY           SKY/WX    TMP DP  RH WIND       PRES   REMARKS
SCOTTSBLUFF    SUNNY     63  47  55 E8        30.34S
ALLIANCE       SUNNY     66  47  50 S7        30.34R
CHADRON        SUNNY     67  46  47 W6        30.31S
KIMBALL        SUNNY     66  44  43 SE10G17   30.34S
SIDNEY         SUNNY     69  43  38 SE10      30.34S
$$

NEZ057>060-069>072-079>082-291600-
SOUTHWEST NEBRASKA

CITY           SKY/WX    TMP DP  RH WIND       PRES   REMARKS
NORTH PLATTE   PTSUNNY   67  53  61 CALM      30.32R
IMPERIAL       MOSUNNY   71  51  49 SE9       30.31S
LEXINGTON      MOSUNNY   69  57  65 CALM      30.30F
MCCOOK         SUNNY     71  56  58 NE8       30.28F
OGALLALA       CLOUDY    70  53  54 S9        30.32S
$$

NEZ005>010-023>029-035>040-094-291600-
NORTH CENTRAL NEBRASKA

CITY           SKY/WX    TMP DP  RH WIND       PRES   REMARKS
VALENTINE      SUNNY     72  47  40 SW12      30.27R
AINSWORTH      SUNNY     74  46  36 SW13      30.28R
BROKEN BOW     PTSUNNY   69  55  60 CALM      30.30R
O`NEILL        SUNNY     75  55  49 SW8       30.25S
ORD            PTSUNNY   69  58  67 CALM      30.27R
THEDFORD       CLOUDY    73  48  42 S10       30.32R
$$

NEZ041-046>049-061>064-073>077-083>087-291600-
SOUTH CENTRAL NEBRASKA

CITY           SKY/WX    TMP DP  RH WIND       PRES   REMARKS
GRAND ISLAND   MOSUNNY   75  58  55 W5        30.27S
AURORA         MOSUNNY   73  59  61 W3        30.27R
HASTINGS       MOSUNNY   73  56  54 CALM      30.27S
HEBRON         MOSUNNY   74  60  61 N5        30.23F
HOLDREGE       MOSUNNY   71  55  56 NE3       30.28F
KEARNEY *      MOSUNNY   72  52  49 S5        30.28F
YORK           SUNNY     73  63  68 CALM      30.26R
$$

NEZ011>018-030>034-042>045-291600-
NORTHEAST NEBRASKA

CITY           SKY/WX    TMP DP  RH WIND       PRES   REMARKS
NORFOLK        SUNNY     74  58  57 W7        30.22R
ALBION         MOSUNNY   71  59  66 SW3       30.25S
BLAIR          MOSUNNY   73  62  67 W3        30.20R
COLUMBUS *     SUNNY     73  57  56 CALM      30.23R
FREMONT        MOSUNNY   73  61  64 W3        30.21R
TEKAMAH        SUNNY     75  64  68 SW3       30.19R
WAYNE          SUNNY     74  60  61 SW8       30.20S
$$

NEZ050>053-065>068-078-088>093-291600-
SOUTHEAST NEBRASKA

CITY           SKY/WX    TMP DP  RH WIND       PRES   REMARKS
LINCOLN        SUNNY     76  63  64 NW3       30.22R
OMAHA EPPLEY   MOSUNNY   75  66  73 NW5       30.18R
BEATRICE       MOSUNNY   75  63  66 N6        30.21R
FALLS CITY     CLOUDY    74  70  87 NW6       30.15R
NEBRASKA CITY  MOSUNNY   74  63  69 N6        30.18R
PLATTSMOUTH    SUNNY     74  65  73 W5        30.19R
$$

NEZ044-045-051>053-067-291600-
OMAHA AREA

CITY           SKY/WX    TMP DP  RH WIND       PRES   REMARKS
OMAHA EPPLEY   MOSUNNY   75  66  73 NW5       30.18R
BLAIR          MOSUNNY   73  62  67 W3        30.20R
FREMONT        MOSUNNY   73  61  64 W3        30.21R
MILLARD        MOSUNNY   76  62  59 CALM      30.19R
OFFUTT AFB     MOSUNNY   75  64  68 NW6       30.17S
PLATTSMOUTH    SUNNY     74  65  73 W5        30.19R
WAHOO          FAIR      74  61  63 NW3       30.21R
$$



USA.gov is the U.S. government's official web portal to all federal, state and local government web resources and services.